www.pogodaiklimat.ru

Погода и климат >> Архив погоды >> Россия >> Красноярский край >> Норильск


АРХИВ ПОГОДЫ в Норильске

Время (UTC), дата Ветер
(напр.,м/с)
 
Видим.   Явления Облачность Т
(С)
Тd
(С)
f
(%)
Тe
(С)
Тes
(С)
Комфортность P
(гПа)
Po
(гПа)
Тmin
(С)
Tmax
(С)
R
(мм)
R24
(мм)
S
(см)
21 18.08 З 2 10 км {дождь, морось} 10/8 600 м
[Sc Ac und]
+14.7 +12.5 87 +14 +14 тепло 1016.4 1008.7
00 19.08 З 3 20 км {дождь, морось} 9/6 600 м
[Sc Ac trans]
+14.1 +12.3 89 +13 +13 тепло 1017.6 1009.8 +13.7 0.0
03 19.08 СЗ 3 20 км 9/8 600 м
[Sc Ac As]
+15.6 +13.6 88 +15 +15 тепло 1018.3 1010.6
06 19.08 СЗ 3 20 км 10/8 600 м
[Sc Ac und]
+16.2 +14.5 90 +16 +16 тепло 1019.2 1011.5
09 19.08 С 3 20 км 9/6 600 м
[Sc Ac As]
+17.1 +14.3 84 +17 +18 тепло 1019.7 1012.0
12 19.08 З 3 20 км 9/5 600 м
[Sc Ac As]
+16.1 +13.6 85 +16 +16 тепло 1020.5 1012.8 +18.5
15 19.08 З 4 20 км 9/0 2000 м
[Ac trans Ci fib]
+14.1 +12.1 88 +13 +13 тепло 1021.2 1013.4
18 19.08 З 4 20 км 8/0 2000 м
[Ac As Ci fib]
+13.2 +12.1 93 +11 +11 тепло 1021.5 1013.7
21 19.08 З 5 4000 м дымка 10/10 300 м
[St]
+11.3 +10.5 95 +8 +8 по сезону 1022.2 1014.3
00 20.08 З 5
{11}
4000 м дымка 10/10 300 м
[St]
+10.3 +9.7 96 +7 +7 по сезону 1023.0 1015.1 +10.2
03 20.08 З 6
{10}
4000 м дымка 9/8 600 м
[Sc Ac trans]
+10.4 +9.2 92 +7 +7 по сезону 1023.3 1015.4
06 20.08 З 6 50 км 6/0 2000 м
[Ac trans Ci fib]
+14.6 +10.6 77 +13 +15 по сезону 1023.4 1015.6
09 20.08 З 5 50 км 6/0 2000 м
[Ac trans Ci fib]
+17.8 +13.6 76 +17 +19 тепло 1023.0 1015.3
12 20.08 З 6 50 км 6/0 2000 м
[Ac trans Ci fib]
+16.2 +12.0 76 +15 +15 тепло 1023.3 1015.5 +18.1
15 20.08 З 5 20 км 4/0 2000 м
[Ac trans Ci fib]
+13.3 +11.0 86 +11 +11 по сезону 1023.2 1015.4
18 20.08 З 4 20 км 4/0 2000 м
[Ac trans]
+11.4 +10.4 94 +9 +9 по сезону 1023.2 1015.3
21 20.08 З 2 1000 м 4/0
[Ac trans]
+10.1 +9.3 95 +8 +8 по сезону 1023.4 1015.5
00 21.08 З 3 200 м туман ?/? +9.2 +9.2 100 +7 +7 по сезону 1023.4 1015.4 +8.9
03 21.08 СЗ 2 50 м туман ?/? +9.8 +9.8 100 +8 +8 по сезону 1023.3 1015.4
06 21.08 штиль 0 50 км {туман} 6/0 2000 м
[Ac trans Ci fib]
+17.4 +12.0 71 +17 +24 тепло 1022.2 1014.4
09 21.08 штиль 0 50 км 4/0
[Ci fib]
+20.5 +14.1 67 +23 +28 комфорт 1020.8 1013.2
12 21.08 СЗ 2 50 км 6/0 2000 м
[Ac trans Ci fib]
+18.6 +13.7 73 +20 +20 тепло 1020.1 1012.5 +20.7
15 21.08 штиль 0 20 км 8/0 2000 м
[Ac trans Ci sp]
+17.6 +13.4 76 +18 +18 тепло 1018.8 1011.1
18 21.08 СЗ 1 10 км 8/0 2000 м
[Ac trans]
+14.5 +13.5 94 +15 +15 тепло 1018.1 1010.4
21 21.08 штиль 0 10 км 6/0 2000 м
[Ac trans]
+12.5 +11.9 96 +12 +12 тепло 1017.7 1009.9
00 22.08 штиль 0 200 м туман 5/0
[Ci sp]
+11.3 +11.1 99 +11 +11 тепло 1017.1 1009.2 +10.9
03 22.08 ЮВ 1 200 м туман 5/0
[Ci sp]
+12.8 +12.6 99 +13 +17 тепло 1016.3 1008.5
06 22.08 В 1 20 км {туман} 8/0 2000 м
[Ac trans Ci fib]
+18.4 +14.4 78 +20 +25 тепло 1014.4 1006.8
09 22.08 СЗ 1 20 км 5/0 2000 м
[Ac trans]
+20.0 +14.2 69 +23 +27 комфорт 1013.5 1005.9
12 22.08 С 2 20 км {гроза} 3/0 2000 м
[Ac trans]
+18.8 +14.3 75 +20 +21 тепло 1012.9 1005.3 +20.3
15 22.08 штиль 0 10 км 6/4 600 м
[Sc diur, vesp Ac trans]
+16.6 +14.2 86 +16 +16 тепло 1012.1 1004.5
18 22.08 штиль 0 10 км 8/5 600 м
[Sc Ac trans]
+13.8 +12.5 92 +13 +13 тепло 1011.5 1003.8
21 22.08 штиль 0 4000 м гроза без осадков 10/6 600 м
[Cb cap Ac cuf]
+12.7 +12.5 99 +12 +12 тепло 1010.6 1002.9
00 23.08 СВ 1 500 м туман {гроза} 10/0 2000 м
[Ac cast Cc]
+10.7 +10.7 100 +10 +11 тепло 1010.9 1003.1 +10.4
03 23.08 ЮВ 1 500 м туман 9/0 2000 м
[Ac trans Cc]
+12.8 +12.6 99 +13 +16 тепло 1009.8 1002.1
06 23.08 ЮВ 2 20 км {туман} 9/0 2000 м
[Ac trans Cc]
+17.6 +13.2 75 +18 +21 тепло 1008.6 1001.0
09 23.08 В 3 20 км гроза без осадков 9/6 600 м
[Cb cap Ac trans]
+19.4 +13.5 69 +21 +22 комфорт 1007.2 999.7
12 23.08 В 3 20 км {гроза} 9/4 600 м
[Cu med, cong Ac trans Ci fib]
+18.0 +14.2 78 +18 +18 тепло 1006.7 999.2 +20.0
15 23.08 штиль 0 20 км 6/3 600 м
[Cu med, cong Ac trans Ci fib]
+15.4 +13.3 87 +15 +15 тепло 1007.0 999.4
18 23.08 Ю 1 20 км 3/0 2000 м
[Ac lent Ci fib]
+13.3 +11.8 91 +13 +13 тепло 1006.4 998.7
21 23.08 В 2 20 км 9/6 600 м
[Sc Ac trans]
+12.7 +11.6 93 +12 +12 тепло 1006.1 998.4
00 24.08 ЮВ 2 10 км слаб. дождь 10/10 600 м
[Sc]
+12.2 +11.6 96 +11 +11 тепло 1006.1 998.4 +12.0 0.6
03 24.08 В 2 10 км слаб. ливневой дождь 10/10 600 м
[Cb cap]
+13.1 +12.5 96 +12 +12 тепло 1005.9 998.2
06 24.08 В 1 20 км {ливн. осадки, дождь} 9/6 600 м
[Sc Ac trans Ci fib]
+15.7 +14.1 90 +16 +18 тепло 1005.7 998.1
09 24.08 ЮЗ 2 20 км 9/8 600 м
[Cu Sc Ac trans]
+17.3 +11.6 69 +18 +18 тепло 1005.6 998.0
12 24.08 ЮЗ 2 20 км 8/4 600 м
[Sc Ac As]
+15.6 +13.5 87 +15 +16 тепло 1005.5 997.9 +17.9 5
15 24.08 штиль 0 20 км 10/8 600 м
[Sc Ac und]
+14.6 +13.5 93 +14 +14 тепло 1005.3 997.7
18 24.08 ЮВ 1 20 км 10/6 600 м
[Sc Ac und]
+13.5 +13.3 99 +14 +14 тепло 1004.4 996.7
21 24.08 СВ 1 20 км в посл. час ливневой дождь 10/9 600 м
[Sc Ac und]
+13.0 +12.4 96 +13 +13 тепло 1004.1 996.4
00 25.08 ЮВ 2 20 км в посл. час ливневой дождь {морось} 10/8 600 м
[Sc Ac und]
+13.0 +12.8 99 +12 +12 тепло 1003.8 996.1 +12.6 15
03 25.08 ЮВ 4 20 км в посл. час ливневой дождь 10/8 600 м
[Sc Ac As]
+13.5 +12.6 94 +12 +12 тепло 1003.0 995.3
06 25.08 ЮВ 4 20 км в посл. час ливневой дождь 9/8 600 м
[Sc Ac As]
+15.8 +12.9 83 +15 +15 тепло 1002.8 995.2
09 25.08 В 5 20 км в посл. час ливневой дождь 10/8 600 м
[Cb cap Ac cuf]
+15.4 +14.2 93 +14 +14 тепло 1002.3 994.7
12 25.08 В 3 20 км {ливн. осадки} 9/8 600 м
[Cb cap Ac und Cs]
+16.7 +14.1 85 +16 +17 тепло 1001.9 994.4 +17.3 2
15 25.08 В 3 20 км в посл. час ливневой дождь 10/8 600 м
[Sc Ac und]
+14.1 +13.4 96 +13 +13 тепло 1002.3 994.7
18 25.08 В 3 20 км {ливн. осадки} 8/5 600 м
[Sc Ac trans]
+13.4 +12.7 96 +12 +12 тепло 1002.1 994.5

 

Местоположение метеостанции Норильск (Красноярский край, Россия): широта 69.33 долгота 88.30 высота над уровнем моря 65 м.

В архиве по умолчанию представлена погода в Норильске за последнюю неделю. Архивные данные за месяц целиком и за предыдущие месяцы, начиная с января 2011 года, Вы можете получить, выбрав интересующий диапазон дат из раскрывающегося списка и нажав кнопку "Ввод!".


*Определитесь, кто Вы:
робот инопланетянин человек

Внимание! Время в таблицах - всемирное. Для получения местного времени необходимо прибавить поправку, которая равна 7 ч.

Смотрите также архив погоды в соседних городах и на ближайших метеорологических станциях:

Погода в Потапово (Красноярский край, Россия) (110 км)
Погода в Снежногорске (Красноярский край, Россия) (138 км)
Погода в Крестах Таймырских (Красноярский край, Россия) (181 км)
Погода в Горбиачине (Красноярский край, Россия) (207 км)
Погода в Карауле (Красноярский край, Россия) (215 км)
Погода в Игарке (Красноярский край, Россия) (219 км)
Погода в Светлогорске (Красноярский край, Россия) (265 км)
Погода в Волочанке (Красноярский край, Россия) (297 км)
Погода в Курейке (Красноярский край, Россия) (321 км)
Погода в Советской Речке (Красноярский край, Россия) (336 км)

Пояснения к столбцам:

Ветер - указаны скорость ветра в м/с - средняя за 10 мин, порывы в срок и между сроками (в фигурных скобках) и направление, откуда дует ветер: С - северный, СВ - северо-восточный, В - восточный, ЮВ - юго-восточный, Ю - южный, ЮЗ - юго-западный, З - западный, СЗ - северо-западный.
Видимость - горизонтальная дальность видимости в метрах или километрах. При видимости от 1 до 10 км при отсутствии осадков обычно наблюдается дымка, при ухудшении видимости до 1 км и менее - туман. В сухую погоду видимость может ухудшаться дымом, пылью или мглою.
Явления - указаны атмосферные явления, наблюдавшиеся в срок или в последний час перед сроком; фигурными скобками обозначены явления, наблюдавшиеся между сроками (за 1-3 часа до срока); квадратными скобками обозначены град или гололедные отложения с указанием их диаметра в мм.
Облачность - указаны через наклонную черту общая и нижняя облачность в баллах и высота нижней границы облаков в метрах; квадратными скобками обозначены формы облаков: Ci - перистые, Cs - перисто-слоистые, Cc - перисто-кучевые, Ac - высококучевые, As - высокослоистые, Sc - слоисто-кучевые, Ns - слоисто-дождевые, Cu - кучевые, Cb - кучево-дождевые. Подробнее классификацию облаков см. в Атласе облаков (PDF).
T - Температура воздуха - температура, измеренная на высоте 2 м над землей.
Td - Температура точки росы - температура, при понижении до которой содержащийся в воздухе водяной пар достигнет насыщения.
f - Относительная влажность воздуха - влажноcть воздуха, измеренная на высоте 2 м над землей.
Te - Эффективная температура - температура, которую ощущает одетый по сезону человек в тени. Характеристика душности погоды. При расчете учитывается влияние влажности воздуха и скорости ветра на теплоощущения человека.
Tes - Эффективная температура на солнце - температура, которую ощущает человек, с поправкой на солнечный нагрев. Характеристика знойности погоды. Зависит от высоты солнца над горизонтом, облачности и скорости ветра. Ночью, в пасмурную погоду, а также при ветре 12 м/с и более поправка равна нулю.
P - Атмосферное давление - приведенное к уровню моря атмосферное давление.
Po - Атмосферное давление - измеренное на уровне метеостанции атмосферное давление.
Tmin - Минимальная температура - минимум температуры воздуха на высоте 2 м над землей.
Tmax - Максимальная температура - максимум температуры воздуха на высоте 2 м над землей.
R - Количество осадков - Количество выпавших осадков за период времени, мм. При наведении курсора мыши на число - период времени, за который выпало указанное количество осадков.
R24 - Количество осадков - Количество выпавших осадков за 24 часа, мм.
S - Снежный покров - Высота снежного покрова, см. При наведении курсора мыши на число - состояние снежного покрова и степень покрытия местности в баллах.